Rutland, VT

9:34 PM EDT on July 24, 2017 (GMT -0400)
Rutland State

Weather History for KRUT - December, 2014

Change the Weather History Date:

Friday, December 19, 2014

  Actual Average Record
Temperature  
Mean Temperature 24 °F -  
Max Temperature 28 °F - 50 °F (1949)
Min Temperature 19 °F - -11 °F (1973)
Degree Days  
Heating Degree Days 41    
Month to date heating degree days 688  
Since 1 July heating degree days 2257  
Cooling Degree Days 0    
Month to date cooling degree days 0  
Year to date cooling degree days 280  
Moisture  
Dew Point 19 °F    
Average Humidity 75    
Maximum Humidity 81    
Minimum Humidity 68    
Precipitation  
Precipitation 0.00 in - 0.56 in (1986)
Month to date precipitation 0.43  
Year to date precipitation 23.45  
Sea Level Pressure  
Sea Level Pressure 30.01 in    
Wind  
Wind Speed 8 mph (NW)    
Max Wind Speed 12 mph    
Max Gust Speed 16 mph    
Visibility 10 miles    
Events      
T = Trace of Precipitation, MM = Missing Value Source: NWS Daily Summary

Daily Weather History Graph

Daily Weather History Graph

Search for Another Location

Airport or City:

Trip Planner

Search our weather history database for the weather conditions in past years. The results will help you decide how hot, cold, wet, or windy it might be!

Date:

Astronomy

Dec. 19, 2014 Rise Set
Actual Time 7:20 AM EST 4:17 PM EST
Civil Twilight 6:47 AM EST 4:50 PM EST
Nautical Twilight 6:11 AM EST 5:26 PM EST
Astronomical Twilight 5:36 AM EST 6:01 PM EST
Moon 4:28 AM EST (12/19) 2:41 PM EST (12/19)
Length of Visible Light 10h 02m
Length of Day
8h 56m
Waning Crescent, 7% of the Moon is Illuminated
Dec 19
Waning Crescent
Dec 21
New
Dec 28
First Quarter
Jan 4
Full
Jan 13
Last Quarter

Hourly Weather History & Observations

Time (EST) Temp. Windchill Dew Point Humidity Pressure Visibility Wind Dir Wind Speed Gust Speed Precip Events Conditions
12:15 AM 28.4 °F 22.2 °F 23.0 °F 80% 29.88 in 10.0 mi NNW 5.8 mph - N/A   Overcast
12:35 AM 28.4 °F 21.2 °F 21.2 °F 74% 29.88 in 10.0 mi North 6.9 mph - N/A   Overcast
12:55 AM 28.4 °F 23.3 °F 23.0 °F 80% 29.88 in 10.0 mi NNW 4.6 mph - N/A   Overcast
1:15 AM 28.4 °F 22.2 °F 21.2 °F 74% 29.89 in 10.0 mi NNW 5.8 mph - N/A   Overcast
1:35 AM 28.4 °F 21.2 °F 21.2 °F 74% 29.89 in 10.0 mi NW 6.9 mph - N/A   Overcast
1:55 AM 28.4 °F 21.2 °F 21.2 °F 74% 29.90 in 10.0 mi NW 6.9 mph - N/A   Overcast
2:15 AM 28.4 °F 22.2 °F 23.0 °F 80% 29.90 in 10.0 mi NW 5.8 mph - N/A   Overcast
2:35 AM 28.4 °F 21.2 °F 21.2 °F 74% 29.90 in 10.0 mi NNW 6.9 mph - N/A   Overcast
2:55 AM 26.6 °F 17.5 °F 21.2 °F 80% 29.90 in 10.0 mi NW 9.2 mph - N/A   Overcast
3:15 AM 26.6 °F 18.2 °F 21.2 °F 80% 29.90 in 10.0 mi NW 8.1 mph - N/A   Overcast
3:35 AM 26.6 °F 18.2 °F 21.2 °F 80% 29.90 in 10.0 mi NNW 8.1 mph - N/A   Overcast
3:55 AM 26.6 °F 16.2 °F 21.2 °F 80% 29.90 in 10.0 mi NNW 11.5 mph - N/A   Overcast
4:15 AM 26.6 °F 20.0 °F 21.2 °F 80% 29.90 in 10.0 mi NW 5.8 mph - N/A   Overcast
4:35 AM 26.6 °F 18.2 °F 21.2 °F 80% 29.90 in 10.0 mi NW 8.1 mph - N/A   Overcast
4:55 AM 26.6 °F 19.1 °F 21.2 °F 80% 29.91 in 10.0 mi NNW 6.9 mph - N/A   Overcast
5:15 AM 26.6 °F 18.2 °F 19.4 °F 74% 29.92 in 10.0 mi NNW 8.1 mph - N/A   Overcast
5:35 AM 26.6 °F 17.5 °F 19.4 °F 74% 29.92 in 10.0 mi NW 9.2 mph - N/A   Overcast
5:55 AM 26.6 °F 17.5 °F 21.2 °F 80% 29.92 in 10.0 mi NW 9.2 mph 16.1 mph N/A   Overcast
6:15 AM 26.6 °F 19.1 °F 19.4 °F 74% 29.93 in 10.0 mi NW 6.9 mph - N/A   Overcast
6:35 AM 26.6 °F 18.2 °F 21.2 °F 80% 29.94 in 10.0 mi NW 8.1 mph - N/A   Overcast
6:55 AM 26.6 °F 18.2 °F 19.4 °F 74% 29.94 in 10.0 mi NW 8.1 mph - N/A   Overcast
7:15 AM 26.6 °F 19.1 °F 19.4 °F 74% 29.95 in 10.0 mi NW 6.9 mph - N/A   Overcast
7:35 AM 26.6 °F 20.0 °F 19.4 °F 74% 29.96 in 10.0 mi NW 5.8 mph - N/A   Overcast
7:55 AM 26.6 °F 18.2 °F 19.4 °F 74% 29.96 in 10.0 mi WNW 8.1 mph - N/A   Overcast
8:15 AM 26.6 °F 19.1 °F 19.4 °F 74% 29.97 in 10.0 mi NW 6.9 mph - N/A   Overcast
8:35 AM 26.6 °F 17.5 °F 19.4 °F 74% 29.98 in 10.0 mi NW 9.2 mph - N/A   Overcast
8:55 AM 26.6 °F 17.5 °F 19.4 °F 74% 29.98 in 10.0 mi NW 9.2 mph - N/A   Overcast
9:15 AM 26.6 °F 18.2 °F 19.4 °F 74% 29.99 in 10.0 mi NW 8.1 mph - N/A   Overcast
9:35 AM 26.6 °F 16.8 °F 21.2 °F 80% 29.99 in 10.0 mi NW 10.4 mph - N/A   Overcast
9:55 AM 26.6 °F 18.2 °F 19.4 °F 74% 30.00 in 10.0 mi NW 8.1 mph - N/A   Overcast
10:15 AM 26.6 °F 18.2 °F 19.4 °F 74% 30.00 in 10.0 mi NW 8.1 mph - N/A   Overcast
10:35 AM 26.6 °F 19.1 °F 19.4 °F 74% 30.01 in 10.0 mi WNW 6.9 mph - N/A   Overcast
10:55 AM 26.6 °F 16.8 °F 19.4 °F 74% 30.00 in 10.0 mi NW 10.4 mph - N/A   Overcast
11:15 AM 26.6 °F 19.1 °F 19.4 °F 74% 30.00 in 10.0 mi NW 6.9 mph - N/A   Overcast
11:35 AM 26.6 °F 19.1 °F 19.4 °F 74% 30.00 in 10.0 mi NW 6.9 mph - N/A   Overcast
11:55 AM 26.6 °F 17.5 °F 17.6 °F 69% 30.00 in 10.0 mi NNW 9.2 mph - N/A   Overcast
12:15 PM 26.6 °F 16.8 °F 19.4 °F 74% 30.00 in 10.0 mi NNW 10.4 mph - N/A   Overcast
12:35 PM 26.6 °F 17.5 °F 17.6 °F 69% 30.00 in 10.0 mi WNW 9.2 mph - N/A   Overcast
12:55 PM 26.6 °F 16.8 °F 19.4 °F 74% 30.01 in 10.0 mi NW 10.4 mph - N/A   Overcast
1:15 PM 26.6 °F 18.2 °F 19.4 °F 74% 30.00 in 10.0 mi NW 8.1 mph - N/A   Overcast
1:35 PM 26.6 °F 16.8 °F 17.6 °F 69% 30.00 in 10.0 mi NNW 10.4 mph - N/A   Overcast
1:55 PM 26.6 °F 17.5 °F 19.4 °F 74% 30.00 in 10.0 mi NNW 9.2 mph - N/A   Overcast
2:15 PM 26.6 °F 17.5 °F 17.6 °F 69% 30.01 in 10.0 mi NNW 9.2 mph - N/A   Overcast
2:35 PM 26.6 °F 18.2 °F 17.6 °F 69% 30.02 in 10.0 mi NW 8.1 mph - N/A   Overcast
2:55 PM 26.6 °F 16.8 °F 17.6 °F 69% 30.03 in 10.0 mi NW 10.4 mph - N/A   Overcast
3:15 PM 26.6 °F 16.2 °F 17.6 °F 69% 30.03 in 10.0 mi NNW 11.5 mph - N/A   Overcast
3:35 PM 26.6 °F 17.5 °F 17.6 °F 69% 30.04 in 10.0 mi NW 9.2 mph - N/A   Overcast
3:55 PM 26.6 °F 17.5 °F 17.6 °F 69% 30.05 in 10.0 mi NW 9.2 mph - N/A   Overcast
4:15 PM 26.6 °F 18.2 °F 19.4 °F 74% 30.06 in 10.0 mi NNW 8.1 mph - N/A   Overcast
4:35 PM 26.6 °F 17.5 °F 17.6 °F 69% 30.06 in 10.0 mi NW 9.2 mph - N/A   Overcast
4:55 PM 24.8 °F 14.0 °F 17.6 °F 74% 30.07 in 10.0 mi NNW 11.5 mph - N/A   Overcast
5:15 PM 24.8 °F 16.1 °F 17.6 °F 74% 30.08 in 10.0 mi NW 8.1 mph - N/A   Overcast
5:35 PM 24.8 °F 12.9 °F 17.6 °F 74% 30.09 in 10.0 mi NNW 13.8 mph 17.3 mph N/A   Overcast
5:55 PM 24.8 °F 14.6 °F 15.8 °F 69% 30.10 in 10.0 mi NW 10.4 mph 16.1 mph N/A   Overcast
6:15 PM 24.8 °F 16.1 °F 17.6 °F 74% 30.10 in 10.0 mi NW 8.1 mph 17.3 mph N/A   Overcast
6:35 PM 24.8 °F 15.3 °F 15.8 °F 69% 30.11 in 10.0 mi NW 9.2 mph 16.1 mph N/A   Overcast
6:55 PM 24.8 °F 14.6 °F 17.6 °F 74% 30.11 in 10.0 mi NW 10.4 mph 16.1 mph N/A   Overcast
7:15 PM 24.8 °F 15.3 °F 15.8 °F 69% 30.12 in 10.0 mi NW 9.2 mph - N/A   Overcast
7:35 PM 23.0 °F 13.9 °F 17.6 °F 80% 30.12 in 10.0 mi NW 8.1 mph - N/A   Overcast
7:55 PM 23.0 °F 15.8 °F 17.6 °F 80% 30.13 in 10.0 mi NNW 5.8 mph - N/A   Overcast
8:15 PM 23.0 °F 14.7 °F 15.8 °F 74% 30.13 in 10.0 mi NNW 6.9 mph - N/A   Overcast
8:35 PM 23.0 °F 13.1 °F 15.8 °F 74% 30.14 in 10.0 mi NW 9.2 mph - N/A   Overcast
8:55 PM 23.0 °F 17.0 °F 17.6 °F 80% 30.14 in 10.0 mi NW 4.6 mph - N/A   Overcast
9:15 PM 21.2 °F 11.7 °F 17.6 °F 86% 30.15 in 10.0 mi NW 8.1 mph - N/A   Overcast
9:35 PM 21.2 °F 12.6 °F 15.8 °F 80% 30.15 in 10.0 mi NNW 6.9 mph - N/A   Overcast
9:55 PM 21.2 °F 13.6 °F 15.8 °F 80% 30.16 in 10.0 mi NW 5.8 mph - N/A   Partly Cloudy
10:15 PM 21.2 °F 13.6 °F 15.8 °F 80% 30.17 in 10.0 mi NW 5.8 mph - N/A   Clear
10:35 PM 21.2 °F 13.6 °F 15.8 °F 80% 30.17 in 10.0 mi NW 5.8 mph - N/A   Clear
10:55 PM 21.2 °F 16.4 °F 15.8 °F 80% 30.17 in 10.0 mi NW 3.5 mph - N/A   Clear
11:15 PM 19.4 °F 11.5 °F 14.0 °F 80% 30.17 in 10.0 mi NW 5.8 mph - N/A   Clear
11:35 PM 19.4 °F - 15.8 °F 86% 30.18 in 10.0 mi Calm Calm - N/A   Clear
11:55 PM 19.4 °F - 14.0 °F 80% 30.18 in 10.0 mi Calm Calm - N/A   Clear